Flag for France Weather past 2 weeks in Orléans, France

41 °F


Feels Like: 35 °F
Forecast: 46 / 54 °F
Wind: 9 mph from Northwest

Location: Orleans Airport

Current Time: Nov 28, 2015 at 5:05:48 AM

Latest Report: Nov 28, 2015 at 4:30 AM

Visibility: 10 mi

Pressure: 29.98 "Hg

Humidity: 93%

Dew point: 39 °F

Location of OrléansLocation

Historic Weather in Orléans — Graph


Orléans temperature yesterday

Maximum temperature yesterday: 43 °F (at 11:00 PM)
Minimum temperature yesterday: 30 °F (at 2:00 AM)
Average temperature yesterday: 36 °F

Past Weeks' High & Low Weather Summary

High61 °F (Nov 17, 4:00 PM)100% (Nov 14, 7:30 AM)30.51 "Hg (Nov 14, 7:30 AM)
Low28 °F (Nov 23, 10:00 PM)53% (Nov 22, 3:30 PM)29.62 "Hg (Nov 21, 4:00 AM)
Average47 °F88%30.08 "Hg
* Reported Nov 13 3:00 AM — Nov 28 3:30 AM, Orléans, Weather by CustomWeather, © 2015

Note: Actual official high and low records may vary slightly from our data, if they occured in-between our weather recording intervals... More about our weather records


Orléans weather history for previous 24 hours

Time TempWeatherWind HumidityBarometerVisibility
3:30 AM
Sat, Nov 28
45 °FPassing clouds.8 mph87%29.98 "HgN/A
3:00 AM45 °FPartly cloudy.14 mph87%29.95 "HgN/A
2:30 AM45 °FMostly cloudy.10 mph100%29.95 "HgN/A
2:00 AM46 °FPartly cloudy.12 mph93%29.92 "HgN/A
1:00 AM45 °FFog.15 mph100%29.92 "Hg3 mi
12:30 AM43 °FFog.13 mph100%29.89 "Hg3 mi
12:00 AM43 °FFog.13 mph100%29.89 "Hg3 mi
11:30 PM
Fri, Nov 27
43 °FLow clouds.13 mph100%29.89 "Hg5 mi
11:00 PM43 °FLow clouds.14 mph93%29.92 "Hg4 mi
10:30 PM41 °FMostly cloudy.10 mph100%29.92 "Hg4 mi
10:00 PM41 °FFog.12 mph100%29.92 "Hg3 mi
9:30 PM41 °FPassing clouds.12 mph100%29.92 "Hg4 mi
9:00 PM41 °FMostly cloudy.12 mph93%29.95 "Hg4 mi
8:30 PM41 °FLow clouds.10 mph93%29.95 "Hg4 mi
8:00 PM39 °FMostly cloudy.8 mph100%29.95 "Hg4 mi
7:30 PM39 °FMostly cloudy.9 mph100%29.95 "Hg5 mi
7:00 PM39 °FFog.10 mph100%29.98 "Hg3 mi
6:30 PM39 °FFog.9 mph100%29.98 "Hg3 mi
6:00 PM39 °FFog.8 mph100%29.98 "Hg3 mi
5:30 PM39 °FLow clouds.8 mph100%29.98 "Hg4 mi
5:00 PM39 °FLow clouds.10 mph100%29.98 "Hg5 mi
4:30 PM39 °FPartly sunny.9 mph93%30.01 "HgN/A
4:00 PM39 °FPartly sunny.9 mph100%30.01 "HgN/A
3:30 PM41 °FLow clouds.8 mph93%30.01 "HgN/A
3:00 PM39 °FLow clouds.8 mph100%30.01 "HgN/A
2:30 PM39 °FLow clouds.8 mph100%30.04 "Hg6 mi
2:00 PM39 °FFog.7 mph100%30.04 "Hg3 mi
1:30 PM39 °FFog.6 mph100%30.04 "Hg1 mi
1:00 PM39 °FFog.6 mph100%30.07 "Hg1 mi
12:30 PM37 °FFog.6 mph100%30.07 "Hg1 mi
12:00 PM36 °FFog.5 mph100%30.09 "Hg1 mi
11:30 AM34 °FFog.5 mph100%30.09 "Hg0 mi
11:00 AM32 °FFog.5 mph100%30.12 "Hg0 mi
10:30 AM32 °FFog.3 mph100%30.12 "Hg0 mi
10:00 AM32 °FIce fog.3 mph100%30.12 "Hg0 mi
9:30 AM30 °FIce fog.3 mph100%30.12 "Hg1 mi
9:00 AM30 °FIce fog.3 mph100%30.12 "Hg0 mi
7:30 AM30 °FIce fog.3 mph100%30.12 "Hg1 mi
7:00 AM30 °FIce fog.No wind100%30.12 "Hg1 mi
6:30 AM30 °FIce fog.No wind100%30.12 "Hg1 mi
6:00 AM32 °FIce fog.No wind100%30.12 "Hg1 mi
5:30 AM32 °FIce fog.3 mph100%30.12 "Hg0 mi
5:00 AM30 °FIce fog.No wind100%30.12 "Hg1 mi
Weather by CustomWeather, © 2015

See weather overviewHow to use our weather pages